Regional Weather Roundup
Issued by NWS

Home | Current Version | Previous Version | Text Only | Print | Product List | Glossary Off
Versions: 1 2 3 4 5 6 7 8 9 10 11 12 13 14 15 16 17 18 19 20 21 22 23 24 25 26 27 28 29 30 31 32 33 34 35 36 37 38 39 40 41 42 43 44 45 46 47 48 49 50

000
ASUS44 KMEG 261800
RWRTN
TENNESSEE HOURLY STATE WEATHER ROUNDUP
NATIONAL WEATHER SERVICE MEMPHIS TN
1200 PM CST SUN FEB 26 2017

TNZ002-004-019-021-049-052-054-088>092-261900-
WEST TENNESSEE

CITY           SKY/WX    TMP DP  RH WIND       PRES   REMARKS
MEMPHIS INTL   MOSUNNY   54  18  24 SE8       30.15F
NWS MEMPHIS      N/A     55 N/A N/A MISG        N/A
JACKSON        SUNNY     51  18  27 S9        30.17F
UNION CITY     SUNNY     50  10  20 CALM      30.18F
PARIS          SUNNY     48  18  29 VRB3      30.19F
$$

TNZ008-025-027-028-033-062-065-066-261900-
NORTH MIDDLE TENNESSEE

CITY           SKY/WX    TMP DP  RH WIND       PRES   REMARKS
NASHVILLE      MOSUNNY   50  15  24 E9        30.23F
CLARKSVILLE    SUNNY     48  16  27 SE10G20   30.20F
SMYRNA         SUNNY     49  19  30 SE6       30.24F
CROSSVILLE     SUNNY     43  15  32 VRB3      30.21F
$$

TNZ061-075-076-078-094-096-097-261900-
SOUTH MIDDLE TENNESSEE

CITY           SKY/WX    TMP DP  RH WIND       PRES   REMARKS
TULLAHOMA      SUNNY     46  10  23 VRB5      30.21F
WINCHESTER     SUNNY     48  19  32 SE7       30.22F
MCMINNVILLE    SUNNY     48  18  29 S5        30.22F
COLUMBIA       SUNNY     50  21  32 VRB6      30.20F
SHELBYVILLE    SUNNY     50  21  32 SE7       30.23F
$$

TNZ017-018-042-046-047-261900-
NORTHEAST TENNESSEE

CITY           SKY/WX    TMP DP  RH WIND       PRES   REMARKS
TRI CITIES     SUNNY     42  16  34 VRB3      30.23F
$$

TNZ012-013-036-069-073-074-261900-
CENTRAL EAST TENNESSEE

CITY           SKY/WX    TMP DP  RH WIND       PRES   REMARKS
KNOXVILLE      SUNNY     45  14  28 VRB3      30.23F
OAK RIDGE      SUNNY     46  14  27 VRB5      30.25F
GATLINBURG     SUNNY     46  12  25 VRB3      30.24F
$$

TNZ083-085-099-261900-
SOUTHEAST TENNESSEE

CITY           SKY/WX    TMP DP  RH WIND       PRES   REMARKS
CHATTANOOGA    SUNNY     49  18  29 N3        30.25F
$$

SKY/WX REPORTED AS FAIR MEANS FEW OR NO CLOUDS BELOW
12 THOUSAND FEET.




USA.gov is the U.S. government's official web portal to all federal, state and local government web resources and services.